| time (UTC) | temp F | wind direction | speed MPH | gust MPH | rain 1hr in | rain 24hr in | rain mn in | humidity % | barometer mb |
| 20260508093017 | 32 | 358 | 0.0 | 0.0 | 0.00 | 0.10 | 0.01 | 96 | 1020.8 |
| 20260508091533 | 32 | 335 | 0.0 | 0.0 | 0.00 | 0.10 | 0.01 | 95 | 1020.7 |
| 20260508090037 | 33 | 302 | 0.0 | 3.0 | 0.00 | 0.10 | 0.01 | 94 | 1020.8 |
| 20260508084505 | 34 | 316 | 1.0 | 5.0 | 0.00 | 0.10 | 0.01 | 97 | 1020.8 |
| 20260508083009 | 32 | 350 | 1.0 | 2.0 | 0.00 | 0.10 | 0.01 | 95 | 1020.8 |
| 20260508081518 | 33 | 112 | 0.0 | 0.0 | 0.00 | 0.10 | 0.01 | 95 | 1021.0 |
| 20260508080031 | 33 | 124 | 0.0 | 1.0 | 0.00 | 0.10 | 0.01 | 92 | 1020.9 |
| 20260508074529 | 36 | 178 | 0.0 | 3.0 | 0.00 | 0.10 | 0.01 | 90 | 1020.8 |
| 20260508073010 | 36 | 251 | 1.0 | 4.0 | 0.00 | 0.10 | 0.01 | 89 | 1020.6 |
| 20260508071523 | 37 | 238 | 5.0 | 8.0 | 0.00 | 0.10 | 0.01 | 89 | 1020.5 |
| 20260508070019 | 36 | 242 | 0.0 | 5.0 | 0.01 | 0.10 | 0.01 | 90 | 1020.5 |
| 20260508064504 | 37 | 233 | 2.0 | 6.0 | 0.03 | 0.10 | 0.01 | 90 | 1020.5 |
| 20260508063006 | 36 | 221 | 1.0 | 2.0 | 0.05 | 0.10 | 0.01 | 90 | 1020.8 |
| 20260508061512 | 37 | 319 | 0.0 | 13.0 | 0.06 | 0.10 | 0.01 | 90 | 1020.8 |
| 20260508060018 | 36 | 248 | 0.0 | 5.0 | 0.05 | 0.09 | 0.00 | 92 | 1021.6 |
| 20260508054502 | 37 | 297 | 3.0 | 10.0 | 0.04 | 0.07 | 0.07 | 90 | 1021.7 |
| 20260508053002 | 38 | 259 | 0.0 | 2.0 | 0.02 | 0.05 | 0.05 | 90 | 1021.5 |
| 20260508051508 | 38 | 300 | 0.0 | 6.0 | 0.01 | 0.04 | 0.04 | 89 | 1021.3 |
| 20260508050012 | 38 | 337 | 0.0 | 2.0 | 0.01 | 0.04 | 0.04 | 89 | 1021.6 |
| 20260508044520 | 39 | 207 | 3.0 | 4.0 | 0.00 | 0.03 | 0.03 | 86 | 1021.4 |
| 20260508043004 | 38 | 241 | 1.0 | 6.0 | 0.00 | 0.03 | 0.03 | 88 | 1021.3 |
| 20260508041506 | 36 | 236 | 2.0 | 3.0 | 0.00 | 0.03 | 0.03 | 93 | 1021.3 |
| 20260508040011 | 37 | 224 | 0.0 | 1.0 | 0.00 | 0.03 | 0.03 | 94 | 1021.1 |
| 20260508034514 | 37 | 144 | 0.0 | 4.0 | 0.00 | 0.03 | 0.03 | 93 | 1020.9 |
| 20260508033018 | 36 | 340 | 0.0 | 2.0 | 0.00 | 0.03 | 0.03 | 93 | 1021.0 |
| 20260508031504 | 37 | 354 | 0.0 | 1.0 | 0.00 | 0.03 | 0.03 | 92 | 1020.8 |
| 20260508030008 | 38 | 313 | 0.0 | 1.0 | 0.00 | 0.03 | 0.03 | 91 | 1020.6 |
| 20260508024512 | 38 | 245 | 2.0 | 4.0 | 0.00 | 0.03 | 0.03 | 88 | 1020.2 |
| 20260508023018 | 38 | 245 | 2.0 | 7.0 | 0.00 | 0.03 | 0.03 | 88 | 1020.2 |
| 20260508021529 | 38 | 171 | 1.0 | 3.0 | 0.00 | 0.03 | 0.03 | 88 | 1020.0 |
| 20260508020005 | 39 | 46 | 0.0 | 1.0 | 0.00 | 0.03 | 0.03 | 88 | 1020.0 |
| 20260508014508 | 39 | 262 | 0.0 | 7.0 | 0.00 | 0.03 | 0.03 | 86 | 1020.2 |
| 20260508013022 | 40 | 268 | 4.0 | 16.0 | 0.01 | 0.03 | 0.03 | 85 | 1019.4 |
| 20260508011519 | 40 | 217 | 8.0 | 15.0 | 0.01 | 0.03 | 0.03 | 85 | 1019.4 |
| 20260508010022 | 40 | 240 | 7.0 | 17.0 | 0.01 | 0.03 | 0.03 | 87 | 1019.8 |
| 20260508004535 | 40 | 249 | 6.0 | 16.0 | 0.02 | 0.03 | 0.03 | 88 | 1019.8 |
| 20260508003012 | 40 | 240 | 4.0 | 11.0 | 0.01 | 0.02 | 0.02 | 86 | 1019.5 |
| 20260508001517 | 41 | 242 | 8.0 | 13.0 | 0.01 | 0.02 | 0.02 | 86 | 1019.2 |
| 20260508000021 | 39 | 229 | 8.0 | 30.0 | 0.01 | 0.02 | 0.02 | 85 | 1019.5 |
| 20260507234524 | 46 | 264 | 6.0 | 14.0 | 0.00 | 0.01 | 0.01 | 72 | 1019.4 |
| 20260507233003 | 47 | 234 | 7.0 | 14.0 | 0.00 | 0.01 | 0.01 | 71 | 1019.0 |
| 20260507231502 | 45 | 234 | 7.0 | 20.0 | 0.00 | 0.02 | 0.01 | 73 | 1019.1 |
| 20260507230002 | 44 | 264 | 6.0 | 16.0 | 0.00 | 0.02 | 0.01 | 77 | 1019.3 |
| 20260507224502 | 43 | 219 | 11.0 | 18.0 | 0.00 | 0.03 | 0.01 | 76 | 1019.6 |
| 20260507223002 | 43 | 257 | 6.0 | 13.0 | 0.00 | 0.03 | 0.01 | 75 | 1019.5 |
| 20260507221502 | 41 | 266 | 9.0 | 26.0 | 0.00 | 0.03 | 0.01 | 80 | 1019.7 |
| 20260507220002 | 41 | 293 | 7.0 | 22.0 | 0.01 | 0.04 | 0.01 | 81 | 1020.2 |
| 20260507214503 | 43 | 272 | 10.0 | 34.0 | 0.01 | 0.05 | 0.01 | 71 | 1019.9 |
| 20260507213002 | 46 | 241 | 20.0 | 29.0 | 0.01 | 0.06 | 0.01 | 68 | 1019.9 |
| 20260507211500 | 43 | 255 | 5.0 | 17.0 | 0.01 | 0.07 | 0.01 | 71 | 1019.8 |
| 20260507210007 | 40 | 323 | 5.0 | 15.0 | 0.00 | 0.07 | 0.00 | 79 | 1020.3 |
| 20260507204504 | 43 | 297 | 16.0 | 27.0 | 0.00 | 0.09 | 0.00 | 69 | 1020.4 |
| 20260507203002 | 47 | 271 | 14.0 | 22.0 | 0.00 | 0.11 | 0.00 | 55 | 1019.8 |
| 20260507201508 | 47 | 297 | 5.0 | 21.0 | 0.00 | 0.13 | 0.00 | 56 | 1019.7 |
| 20260507200003 | 48 | 287 | 10.0 | 20.0 | 0.00 | 0.14 | 0.00 | 52 | 1019.9 |
| 20260507194503 | 48 | 256 | 15.0 | 24.0 | 0.00 | 0.16 | 0.00 | 49 | 1020.0 |
| 20260507193004 | 48 | 258 | 15.0 | 23.0 | 0.00 | 0.17 | 0.00 | 50 | 1020.1 |
| 20260507191503 | 48 | 299 | 7.0 | 21.0 | 0.00 | 0.18 | 0.00 | 52 | 1020.2 |
| 20260507190004 | 47 | 253 | 11.0 | 21.0 | 0.00 | 0.19 | 0.00 | 52 | 1020.5 |
| 20260507184509 | 46 | 256 | 7.0 | 20.0 | 0.00 | 0.19 | 0.00 | 54 | 1020.7 |
| 20260507183003 | 45 | 180 | 5.0 | 18.0 | 0.00 | 0.20 | 0.00 | 57 | 1020.8 |
| 20260507181503 | 44 | 272 | 10.0 | 17.0 | 0.00 | 0.20 | 0.00 | 57 | 1020.9 |
| 20260507180005 | 44 | 260 | 6.0 | 19.0 | 0.00 | 0.21 | 0.00 | 57 | 1020.9 |
| 20260507174503 | 44 | 295 | 9.0 | 18.0 | 0.00 | 0.22 | 0.00 | 58 | 1020.8 |
| 20260507173002 | 44 | 280 | 4.0 | 15.0 | 0.00 | 0.22 | 0.00 | 58 | 1021.1 |
| 20260507171506 | 43 | 232 | 3.0 | 20.0 | 0.00 | 0.23 | 0.00 | 58 | 1021.0 |
| 20260507170002 | 43 | 278 | 12.0 | 21.0 | 0.00 | 0.23 | 0.00 | 58 | 1021.0 |
| 20260507164503 | 42 | 243 | 12.0 | 25.0 | 0.00 | 0.24 | 0.00 | 58 | 1020.4 |
| 20260507163006 | 42 | 323 | 10.0 | 34.0 | 0.00 | 0.24 | 0.00 | 60 | 1020.6 |
| 20260507161504 | 41 | 274 | 7.0 | 37.0 | 0.00 | 0.24 | 0.00 | 62 | 1020.8 |
| 20260507160005 | 40 | 268 | 14.0 | 26.0 | 0.00 | 0.24 | 0.00 | 61 | 1021.1 |
| 20260507154506 | 39 | 278 | 11.0 | 22.0 | 0.00 | 0.24 | 0.00 | 63 | 1021.4 |
| 20260507153006 | 38 | 243 | 9.0 | 22.0 | 0.00 | 0.24 | 0.00 | 65 | 1021.5 |
| 20260507151505 | 37 | 224 | 8.0 | 14.0 | 0.00 | 0.24 | 0.00 | 66 | 1021.9 |
| 20260507150007 | 35 | 236 | 10.0 | 17.0 | 0.00 | 0.24 | 0.00 | 66 | 1021.9 |
| 20260507144509 | 34 | 231 | 7.0 | 12.0 | 0.00 | 0.24 | 0.00 | 68 | 1022.0 |
| 20260507143009 | 33 | 212 | 6.0 | 13.0 | 0.00 | 0.24 | 0.00 | 69 | 1022.0 |
| 20260507141502 | 32 | 223 | 7.0 | 13.0 | 0.00 | 0.24 | 0.00 | 70 | 1021.7 |
| 20260507140008 | 31 | 245 | 5.0 | 10.0 | 0.00 | 0.24 | 0.00 | 71 | 1022.0 |
| 20260507134503 | 31 | 223 | 6.0 | 10.0 | 0.00 | 0.24 | 0.00 | 72 | 1021.8 |
| 20260507133006 | 30 | 222 | 6.0 | 13.0 | 0.00 | 0.24 | 0.00 | 72 | 1021.4 |
| 20260507131515 | 30 | 216 | 7.0 | 12.0 | 0.00 | 0.24 | 0.00 | 72 | 1021.1 |
| 20260507130022 | 29 | 226 | 4.0 | 9.0 | 0.00 | 0.24 | 0.00 | 73 | 1021.1 |
| 20260507124503 | 29 | 237 | 4.0 | 13.0 | 0.00 | 0.24 | 0.00 | 73 | 1021.2 |
| 20260507123004 | 28 | 223 | 6.0 | 12.0 | 0.00 | 0.24 | 0.00 | 73 | 1021.4 |
| 20260507121506 | 28 | 256 | 8.0 | 11.0 | 0.00 | 0.24 | 0.00 | 73 | 1021.5 |
| 20260507120013 | 27 | 269 | 5.0 | 11.0 | 0.00 | 0.24 | 0.00 | 74 | 1021.7 |
| 20260507114512 | 27 | 244 | 1.0 | 4.0 | 0.00 | 0.24 | 0.00 | 74 | 1021.8 |
| 20260507113002 | 28 | 205 | 1.0 | 4.0 | 0.00 | 0.24 | 0.00 | 73 | 1022.0 |
| 20260507111504 | 28 | 252 | 4.0 | 9.0 | 0.00 | 0.24 | 0.00 | 73 | 1022.0 |
| 20260507103025 | 22 | 358 | 0.0 | 0.0 | 0.00 | 0.24 | 0.00 | 86 | 1022.3 |
| 20260507101503 | 24 | 331 | 0.0 | 0.0 | 0.00 | 0.24 | 0.00 | 81 | 1022.3 |
| 20260507100005 | 27 | 334 | 1.0 | 6.0 | 0.00 | 0.24 | 0.00 | 74 | 1022.3 |